Flag for Sweden Weather past 2 weeks in Malmö, Sweden

37 °F

Light rain. Mostly cloudy.

Feels Like: 28 °F
Forecast: 38 / 44 °F
Wind: 17 mph from South

Location: Malmo / Sturup

Current Time: Nov 25, 2015 at 3:28:02 AM

Latest Report: Nov 25, 2015 at 2:50 AM

Visibility: 4 mi

Pressure: 29.62 "Hg

Humidity: 93%

Dew point: 36 °F

Location of MalmöLocation

Historic Weather in Malmö — Graph


Malmö temperature yesterday

Maximum temperature yesterday: 43 °F (at 10:50 AM)
Minimum temperature yesterday: 37 °F (at 12:20 AM)
Average temperature yesterday: 40 °F

Past Weeks' High & Low Weather Summary

High57 °F (Nov 10, 9:50 AM)100% (Nov 10, 4:50 AM)30.15 "Hg (Nov 10, 4:50 AM)
Low18 °F (Nov 23, 8:20 AM)65% (Nov 23, 3:20 PM)29.15 "Hg (Nov 18, 2:50 AM)
Average44 °F89%29.67 "Hg
* Reported Nov 10 2:20 AM — Nov 25 2:20 AM, Malmö, Weather by CustomWeather, © 2015

Note: Actual official high and low records may vary slightly from our data, if they occured in-between our weather recording intervals... More about our weather records


Malmö weather history for previous 24 hours

Time TempWeatherWind HumidityBarometerVisibility
2:20 AM
Wed, Nov 25
37 °FLight rain. Passing clouds.17 mph93%29.62 "Hg5 mi
1:20 AM37 °FLight rain. Mostly cloudy.16 mph93%29.65 "Hg3 mi
12:50 AM37 °FLight rain. Mostly cloudy.17 mph93%29.65 "Hg4 mi
12:20 AM37 °FLight rain. Mostly cloudy.16 mph93%29.65 "HgN/A
11:20 PM
Tue, Nov 24
39 °FPassing clouds.16 mph93%29.68 "Hg5 mi
10:50 PM39 °FRain. Mostly cloudy.18 mph87%29.68 "Hg4 mi
10:20 PM39 °FLight rain. Passing clouds.18 mph87%29.68 "Hg6 mi
9:50 PM39 °FLight rain. Passing clouds.17 mph87%29.71 "Hg6 mi
9:20 PM39 °FLight rain. Partly cloudy.18 mph87%29.71 "Hg4 mi
8:50 PM39 °FLight rain. Partly cloudy.20 mph87%29.71 "Hg5 mi
8:20 PM39 °FLight rain. Partly cloudy.18 mph87%29.71 "Hg5 mi
7:50 PM39 °FLight rain. Partly cloudy.20 mph87%29.74 "HgN/A
7:20 PM37 °FLight rain. Passing clouds.20 mph93%29.74 "HgN/A
6:50 PM39 °FLight rain. Passing clouds.20 mph87%29.77 "HgN/A
6:20 PM39 °FLight rain. Passing clouds.20 mph87%29.77 "HgN/A
5:50 PM39 °FPassing clouds.21 mph87%29.77 "HgN/A
5:20 PM39 °FPassing clouds.22 mph87%29.77 "HgN/A
4:50 PM39 °FLight rain. Passing clouds.20 mph87%29.77 "HgN/A
4:20 PM39 °FDrizzle. Mostly cloudy.21 mph87%29.80 "HgN/A
3:50 PM39 °FLight rain. Mostly cloudy.18 mph87%29.80 "Hg6 mi
3:20 PM41 °FDrizzle. Mostly cloudy.18 mph87%29.80 "HgN/A
2:50 PM41 °FDrizzle. Mostly cloudy.21 mph87%29.83 "Hg6 mi
2:20 PM41 °FDrizzle. Mostly cloudy.21 mph81%29.83 "HgN/A
1:50 PM41 °FDrizzle. Mostly cloudy.20 mph81%29.83 "HgN/A
1:20 PM41 °FLight rain. Mostly cloudy.20 mph81%29.86 "HgN/A
12:50 PM41 °FDrizzle. Partly sunny.18 mph87%29.86 "HgN/A
12:20 PM43 °FPartly sunny.21 mph81%29.86 "HgN/A
11:50 AM43 °FPartly sunny.20 mph81%29.89 "HgN/A
11:20 AM41 °FPartly sunny.18 mph81%29.89 "HgN/A
10:50 AM43 °FPartly sunny.16 mph76%29.89 "HgN/A
10:20 AM41 °FScattered clouds.16 mph81%29.92 "HgN/A
9:50 AM41 °FScattered clouds.16 mph81%29.92 "HgN/A
9:20 AM41 °FScattered clouds.14 mph81%29.92 "HgN/A
8:50 AM41 °FBroken clouds.16 mph81%29.92 "HgN/A
7:50 AM39 °FClear.13 mph87%29.92 "Hg10 mi
7:20 AM39 °FPartly cloudy.13 mph87%29.95 "HgN/A
6:50 AM39 °FPassing clouds.14 mph93%29.95 "HgN/A
6:20 AM39 °FPartly cloudy.13 mph93%29.95 "HgN/A
5:50 AM39 °FPassing clouds.15 mph93%29.95 "HgN/A
5:20 AM39 °FOvercast.14 mph93%29.95 "HgN/A
4:50 AM39 °FOvercast.13 mph93%29.95 "HgN/A
3:50 AM37 °FOvercast.13 mph93%29.95 "HgN/A
3:20 AM37 °FDrizzle. Overcast.12 mph93%29.98 "HgN/A
Weather by CustomWeather, © 2015

See weather overviewHow to use our weather pages